Home > Weather > Keflavík > Past weeks

Flag for Iceland Weather for the Past 2 Weeks in Keflavík, Iceland

Now
41 °F

Scattered clouds.


Feels Like: 33 °F
Forecast: 35 / 41 °F
Wind: 16 mph from Northwest

Location: Keflavikurflugvollur

Current Time: Apr 29, 2016 at 2:21:07 PM

Latest Report: Apr 29, 2016 at 2:00 PM


Visibility: N/A

Pressure: 30.07 "Hg

Humidity: 66%

Dew Point: 30 °F

Location of KeflavíkLocation

Historic Weather in Keflavík — Graph

°F

Keflavík Temperature Yesterday

Maximum temperature yesterday: 37 °F (at 11:00 AM)
Minimum temperature yesterday: 32 °F (at 12:00 AM)
Average temperature yesterday: 36 °F

High & Low Weather Summary for the Past Weeks

 TemperatureHumidityPressure
High50 °F (Apr 14, 4:00 PM)100% (Apr 16, 2:30 AM)30.54 "Hg (Apr 16, 2:30 AM)
Low28 °F (Apr 18, 6:30 AM)47% (Apr 14, 5:30 PM)29.27 "Hg (Apr 17, 12:30 AM)
Average39 °F78%30.14 "Hg
* Reported Apr 14 1:00 PM — Apr 29 1:00 PM, Keflavík, Weather by CustomWeather, © 2016

Note: Actual official high and low records may vary slightly from our data, if they occured in-between our weather recording intervals... More about our weather records

Advertising

Keflavík Weather History for the Previous 24 Hours

Scroll right to see more
 ConditionsComfort  
Time TempWeatherWind HumidityBarometerVisibility
1:00 PM
Fri, Apr 29
41 °FPartly sunny.15 mph66%30.07 "HgN/A
12:30 PM41 °FPartly sunny.16 mph61%30.07 "HgN/A
12:00 PM39 °FPartly sunny.16 mph70%30.07 "HgN/A
11:30 AM39 °FPartly sunny.17 mph70%30.07 "HgN/A
11:00 AM39 °FPartly sunny.21 mph70%30.07 "HgN/A
10:30 AM41 °FBroken clouds.24 mph66%30.07 "HgN/A
10:00 AM41 °FPartly sunny.24 mph66%30.07 "HgN/A
9:30 AM41 °FBroken clouds.21 mph66%30.07 "HgN/A
9:00 AM39 °FPartly sunny.21 mph70%30.07 "HgN/A
8:30 AM39 °FBroken clouds.18 mph65%30.07 "HgN/A
8:00 AM37 °FBroken clouds.20 mph75%30.09 "HgN/A
7:30 AM37 °FBroken clouds.18 mph75%30.07 "HgN/A
7:00 AM37 °FBroken clouds.20 mph70%30.09 "HgN/A
6:30 AM37 °FBroken clouds.20 mph70%30.07 "HgN/A
6:00 AM37 °FBroken clouds.18 mph75%30.09 "HgN/A
5:30 AM37 °FBroken clouds.17 mph75%30.09 "HgN/A
5:00 AM37 °FPartly cloudy.21 mph70%30.07 "HgN/A
4:30 AM37 °FPartly cloudy.16 mph70%30.07 "HgN/A
4:00 AM37 °FPartly cloudy.20 mph75%30.09 "HgN/A
3:30 AM37 °FPartly cloudy.17 mph75%30.09 "HgN/A
2:30 AM37 °FPartly cloudy.15 mph70%30.09 "HgN/A
2:00 AM36 °FPartly cloudy.15 mph75%30.12 "HgN/A
1:01 AM37 °FPartly cloudy.15 mph65%30.12 "HgN/A
12:30 AM37 °FPartly cloudy.14 mph60%30.12 "HgN/A
12:00 AM37 °FPassing clouds.14 mph56%30.15 "HgN/A
11:30 PM
Thu, Apr 28
36 °FPartly cloudy.14 mph56%30.15 "HgN/A
11:00 PM36 °FPartly cloudy.13 mph60%30.15 "HgN/A
10:30 PM36 °FPartly cloudy.12 mph56%30.18 "HgN/A
10:00 PM36 °FPartly cloudy.14 mph60%30.18 "HgN/A
9:30 PM36 °FBroken clouds.14 mph60%30.18 "HgN/A
9:00 PM36 °FBroken clouds.16 mph60%30.18 "HgN/A
8:30 PM36 °FBroken clouds.15 mph60%30.21 "HgN/A
8:00 PM36 °FBroken clouds.18 mph60%30.21 "HgN/A
7:30 PM36 °FBroken clouds.21 mph65%30.21 "HgN/A
7:00 PM36 °FBroken clouds.23 mph56%30.21 "HgN/A
6:30 PM36 °FBroken clouds.23 mph65%30.21 "HgN/A
6:00 PM37 °FBroken clouds.25 mph56%30.21 "HgN/A
5:30 PM37 °FBroken clouds.29 mph60%30.21 "HgN/A
5:00 PM37 °FPartly sunny.25 mph65%30.24 "HgN/A
4:30 PM37 °FPartly sunny.22 mph65%30.24 "HgN/A
4:00 PM37 °FPartly sunny.29 mph65%30.24 "HgN/A
3:30 PM36 °FPartly sunny.26 mph70%30.24 "HgN/A
3:00 PM37 °FPartly sunny.26 mph65%30.24 "HgN/A
2:30 PM37 °FPartly sunny.26 mph65%30.24 "HgN/A
2:00 PM37 °FPartly sunny.28 mph60%30.27 "HgN/A
Weather by CustomWeather, © 2016

See weather overviewHow to use our weather pages